Location: Astronight Observatory
(42.6003°N, 71.2981°W)
Time: 02:22:24
(UTC-04:00)

Daily predictions for brighter satellites

Satellite Brightness Start Highest point End
(mag) Time Altitude Azimuth Time Altitude Azimuth Time Altitude Azimuth
Cosmos 2074 Rocket 4.5 00:08:02 57° N 00:08:02 57° N 00:12:57 10° N
COSMOS 2455 3.6 00:02:00 10° NNW 00:06:25 50° NNW 00:06:25 50° NNW
Cosmos 2333 Rocket 3.7 00:07:43 29° WNW 00:08:17 29° NW 00:13:12 10° N
Terra 4.5 00:12:27 12° WNW 00:12:27 12° WNW 00:13:14 10° WNW
Cosmos 2237 Rocket 3.7 00:27:23 30° NW 00:27:23 30° NW 00:32:08 10° N
Cosmos 2369 Rocket 3.7 00:24:33 10° N 00:28:53 30° NE 00:28:53 30° NE
Mayak 1.5 01:10:51 10° N 01:11:52 16° N 01:11:52 16° N
CENTAUR R/B 4.2 01:12:42 10° NW 01:17:32 31° W 01:17:32 31° W
USA 215 3.7 01:31:04 52° NW 01:31:04 52° NW 01:35:49 10° NW
SL-16 R/B 4.1 01:35:36 21° NW 01:35:37 21° NW 01:39:53 10° N
ADEOS Rocket 4.1 01:38:28 10° NNE 01:42:17 30° ENE 01:42:17 30° ENE
Cosmos 2218 Rocket 4.4 01:45:01 58° NNW 01:45:01 58° NNW 01:50:13 10° N
Resurs 1-4 Rocket 4.3 01:45:37 10° NE 01:48:27 15° E 01:48:27 15° E
SL-16 R/B 4.2 01:48:13 21° E 01:50:47 28° ENE 01:55:55 10° N
Cosmos 1943 Rocket 3.2 01:48:47 10° NNW 01:52:18 40° NNW 01:52:18 40° NNW
CZ-2D R/B 3.9 02:01:53 10° NE 02:05:55 22° E 02:05:55 22° E
Cosmos 2369 Rocket 3.9 02:08:22 10° NW 02:10:38 23° NW 02:10:38 23° NW
Cosmos 1943 4.1 02:26:52 39° NW 02:26:52 39° NW 02:31:31 10° NNE
Cosmos 2221 4.2 02:30:37 31° ENE 02:30:37 31° ENE 02:33:29 10° NNE
BREEZE-M DEB (TANK) 4.4 02:33:30 25° ENE 02:33:30 25° ENE 02:35:48 10° ENE
Cosmos 540 Rocket 4.1 02:33:40 53° NE 02:33:40 53° NE 02:37:46 10° NNE
Cosmos 1535 Rocket 4.4 02:35:43 79° ESE 02:35:54 80° E 02:42:19 10° N
CBERS-1 4.3 02:34:57 10° NNE 02:39:18 63° NNE 02:39:18 63° NNE
AQUA 4.4 02:38:42 10° NNE 02:42:30 55° NNE 02:42:30 55° NNE
Cosmos 1726 4.5 02:47:58 20° ENE 02:47:58 20° ENE 02:50:12 10° NE
UNK 4.3 02:51:39 56° NNE 02:51:39 56° NNE 02:55:29 10° N
Cosmos 2098 Rocket 3.6 02:52:43 79° N 02:52:43 79° N 02:57:18 10° N
Cosmos 2285 Rocket 4.3 02:58:36 50° SSE 02:59:51 59° ESE 03:06:08 10° NNE
Cosmos 1125 Rocket 4.0 02:56:18 10° NNW 03:00:09 48° NW 03:00:09 48° NW
SL-08 R/B 4.4 03:06:43 33° NW 03:06:43 33° NW 03:09:36 10° NNW
Lacrosse 5 3.8 03:00:35 10° NNW 03:05:00 29° NNE 03:09:25 10° E
Sich 1 4.0 03:03:48 10° N 03:08:00 43° ENE 03:08:38 40° ESE
UNKNOWN OBJECT B 4.3 03:04:35 10° NNE 03:08:14 31° E 03:08:26 30° ESE
USA 229 DEB 3.7 03:01:09 10° NW 03:08:21 81° WSW 03:15:40 10° SSE
USA 229 3.7 03:01:16 10° NW 03:08:27 82° WSW 03:15:46 10° SSE
NPP 3.9 03:04:13 10° N 03:09:18 53° WNW 03:09:18 53° WNW
IRS-1C 4.0 03:04:17 10° N 03:09:36 73° WNW 03:09:39 73° WNW
ERS-1 4.3 03:05:08 10° NNE 03:10:07 82° ESE 03:10:10 81° ESE
BREEZE M DEB (TANK) 2.9 03:10:46 66° E 03:10:46 66° E 03:17:51 10° ESE
Cosmos 1400 Rocket 4.0 03:09:11 10° N 03:11:36 36° N 03:11:36 36° N
Cosmos 2123 Rocket 4.0 03:19:27 10° NNW 03:25:34 58° W 03:26:21 54° WSW
COSMOS 2406 3.1 03:25:16 63° WSW 03:26:03 74° WNW 03:31:47 10° NNE
Resurs 1-4 Rocket 2.0 03:23:42 10° N 03:28:56 69° WNW 03:29:32 63° WSW
ADEOS Rocket 3.6 03:24:05 10° N 03:28:56 33° WNW 03:29:13 33° WNW
SL-16 R/B 2.6 03:33:19 49° SW 03:34:04 52° W 03:40:08 10° NNW
Cosmos 1934 Rocket 4.4 03:37:07 39° W 03:37:49 41° WNW 03:43:31 10° N
Cosmos 1633 Rocket 3.0 03:35:04 10° N 03:39:27 78° E 03:40:27 52° SSE
ARIANE 5 R/B 2.6 03:35:45 10° N 03:40:57 64° WNW 03:41:55 53° WSW
Cosmos 2228 Rocket 4.0 03:39:27 27° SSE 03:41:24 45° E 03:45:39 10° NNE
NOSS 3-1 (C) 4.0 03:34:24 10° NW 03:42:02 87° NE 03:50:28 10° SE
Cosmos 1300 2.6 03:43:27 75° SE 03:43:37 77° E 03:47:27 10° N
CZ-2D R/B 2.4 03:41:08 10° N 03:46:17 49° WNW 03:47:15 44° WSW
Cosmos 1605 Rocket 4.5 03:53:59 36° WSW 03:55:48 45° WNW 04:01:55 10° N
SL-27 R/B 3.0 03:58:50 43° NW 03:58:50 43° NW 04:01:47 10° N
Cosmos 1455 4.4 03:56:43 10° SE 03:59:46 24° E 04:02:48 10° NE
Cosmos 1328 Rocket 3.4 04:00:52 40° S 04:02:22 90° SSW 04:06:45 10° N
Cosmos 2061 Rocket 4.2 03:58:52 17° S 04:03:57 78° E 04:10:23 10° N
MOS 1 Rocket 3.9 04:02:51 10° N 04:06:45 33° WNW 04:07:17 32° W
Cosmos 2221 4.2 04:07:30 19° WNW 04:07:30 19° WNW 04:10:23 10° NNW
IRS-1D 4.5 04:04:40 10° N 04:09:11 32° WNW 04:10:29 28° W
Cosmos 2082 Rocket 3.1 04:07:33 14° S 04:12:10 46° ESE 04:17:31 10° NE
Cosmos 773 Rocket 3.9 04:10:42 30° SSW 04:13:24 83° WNW 04:18:44 10° NNE
Cosmos 1666 Rocket 4.2 04:10:06 10° NNW 04:14:09 35° W 04:14:34 34° WSW
Cosmos 2016 Rocket 4.1 04:09:11 12° S 04:14:58 75° E 04:21:04 10° N
ADEOS II 2.6 04:10:47 10° NNE 04:15:59 58° E 04:21:09 10° S
Cosmos 1315 Rocket 3.8 04:15:28 10° NNW 04:18:35 28° W 04:18:35 28° W
Cosmos 1726 3.5 04:22:36 23° WNW 04:22:36 23° WNW 04:25:36 10° NNW
Cosmos 1933 Rocket 3.5 04:18:35 10° N 04:23:04 80° W 04:27:30 10° S
PSLV R/B 3.4 04:25:14 43° SSW 04:25:28 44° SSW 04:28:35 10° ESE
COSMOS 2487 2.9 04:25:53 20° S 04:28:07 59° ESE 04:31:37 10° NNE
Cosmos 1725 Rocket 4.3 04:23:00 10° S 04:29:06 69° E 04:35:15 10° NNE
Meteor 2-3 Rocket 3.7 04:24:00 10° N 04:29:40 87° ENE 04:35:23 10° S
CZ-4B R/B 4.3 04:25:07 10° NNE 04:30:18 42° E 04:35:22 10° S
Cosmos 1151 Rocket 2.9 04:28:07 20° SSW 04:31:05 77° W 04:35:23 10° N
Tiangong 2 1.9 04:30:19 32° SSW 04:31:10 40° SSE 04:34:14 10° E
Cosmos 2100 Rocket 4.3 04:29:51 19° SSW 04:34:20 52° WNW 04:40:33 10° N
Cosmos 1802 Rocket 4.0 04:29:14 15° SSW 04:34:26 66° W 04:40:42 10° N
PSLV R/B 4.1 04:31:17 10° NNE 04:35:27 76° ESE 04:39:31 10° S
Cosmos 2369 3.6 04:35:36 10° NNW 04:41:12 65° WSW 04:46:46 10° S
Cosmos 1656 3.7 04:35:41 10° NNW 04:41:25 83° WSW 04:47:06 10° SSE
Cosmos 1892 2.6 04:37:52 10° NNW 04:41:41 66° W 04:45:30 10° S
Okean O Rocket 2.0 04:37:24 10° NNE 04:41:49 63° ESE 04:46:10 10° S
UNKNOWN OBJECT B 4.3 04:39:23 10° NNW 04:42:33 22° WNW 04:43:54 19° W
Shenzhou-11 Module 2.1 04:43:41 28° SW 04:45:05 61° SSE 04:48:09 10° E
Cosmos 192 4.3 04:43:47 13° SSW 04:48:10 80° WNW 04:53:10 10° NNE
Lacrosse 5 1.8 04:43:19 10° NW 04:48:23 71° SW 04:53:25 10° SE
Cosmos 1825 3.7 04:48:17 10° N 04:51:53 39° ENE 04:55:27 10° SSE
Tsikada Rocket 4.0 04:47:29 10° N 04:53:50 83° W 05:00:13 10° S
Cosmos 1408 3.8 04:51:29 10° N 04:54:59 44° E 04:58:26 10° SSE
Hubble Space Telescope 3.0 04:53:56 10° SSW 04:55:08 11° S 04:56:22 10° SSE
Meteor 1-27 4.3 04:51:10 10° SSW 04:56:43 58° WNW 05:02:15 10° N
ATLAS 2AS CENTAUR R/B 4.0 04:50:10 10° NNW 04:58:01 51° NE 05:05:19 10° ESE
CZ-4B R/B 3.2 04:56:23 10° N 05:00:50 66° WNW 05:05:20 10° SSW
NOSS 3-1 (A) 4.4 04:57:01 10° NW 05:04:17 45° WSW 05:12:11 10° S
Cosmos 1371 Rocket 4.4 04:59:46 10° NNW 05:05:00 70° ENE 05:10:16 10° SSE
Cosmos 1833 Rocket 2.7 05:01:17 10° SSW 05:06:54 67° WNW 05:12:33 10° NNE
ATLAS 5 CENTAUR R/B 4.4 05:12:59 10° SE 05:15:24 14° ESE 05:17:53 10° ENE
Cosmos 1624 Rocket 4.2 05:15:42 10° NNW 05:20:59 80° ENE 05:26:12 10° SSE
Cosmos 1980 Rocket 2.3 05:16:53 10° NNW 05:22:32 88° ENE 05:28:10 10° SSE
USA 234 4.1 05:21:00 10° ENE 05:27:18 47° SE 05:33:33 10° SSW
Cosmos 1869 Rocket 3.7 05:24:26 10° NNW 05:28:48 53° W 05:33:07 10° S
IRS-1C Rocket 4.2 05:26:01 10° N 05:31:12 61° WNW 05:36:22 10° SSW
Cosmos 1680 Rocket 4.2 05:27:07 10° SW 05:32:03 38° WNW 05:37:01 10° N
Timation 2 Rocket 4.0 05:26:36 10° SSW 05:32:36 90° ESE 05:38:48 10° NNE
